Theta_e
352 350 350 351 362 359 365 362 357 356 356 351 349 349 352 351 353 353 345 346 345 344 343 344 347 351 350 348 347 347 342 340 340 348 345 350 351 350 347 349 350 350 347 349 350 351 351 347 342
352 350 351 348 358 361 361 356 358 354 352 350 350 350 351 353 347 345 346 344 343 343 343 344 348 349 350 348 347 344 346 347 346 345 349 350 350 351 351 348 349 348 348 351 351 351 350 345 343
351 353 351 355 357 363 358 356 355 353 350 351 352 349 349 352 346 345 345 344 344 345 345 346 348 349 351 351 347 350 350 350 347 351 351 348 351 351 345 346 350 349 349 349 351 350 350 348 342
350 350 355 364 365 359 357 355 353 354 351 350 349 353 348 346 346 346 344 345 344 345 345 349 350 351 351 351 351 352 350 344 342 348 343 346 350 349 345 349 351 351 350 351 350 350 346 343 342
349 352 360 364 363 356 355 354 354 355 353 352 351 353 350 347 347 345 345 345 345 346 347 349 349 349 350 351 352 351 349 343 342 343 343 345 347 346 347 348 349 350 353 351 348 343 342 342 342
352 352 359 359 356 355 356 352 354 355 353 351 351 351 352 345 345 346 345 345 345 346 347 349 350 348 350 351 351 345 343 341 343 344 342 344 346 347 347 347 348 351 352 350 343 341 341 343 343
349 350 352 355 354 359 358 351 354 353 353 352 348 354 351 345 347 346 346 345 345 347 347 347 349 351 351 351 350 341 340 339 343 341 340 342 344 346 347 347 346 347 345 343 343 344 343 343 343
346 341 349 352 357 356 355 353 351 351 353 346 347 353 353 346 347 346 345 345 345 347 346 347 347 349 350 351 350 340 339 339 343 342 342 341 344 347 348 347 346 343 342 343 345 346 346 345 343
342 345 348 352 353 352 352 354 351 348 350 348 347 347 345 348 347 347 347 345 346 347 346 347 347 349 348 348 348 345 341 339 342 341 342 344 345 346 348 347 345 342 342 344 346 347 345 342 345
346 345 347 342 343 350 354 353 352 352 350 353 349 347 347 348 347 347 346 346 348 348 347 347 347 347 346 345 345 346 343 341 339 340 340 340 342 347 348 347 346 344 344 345 345 346 343 347 345
347 353 345 344 347 347 353 354 351 352 352 352 351 349 348 348 347 348 347 346 347 347 348 347 346 346 345 343 343 347 341 338 337 338 338 342 347 348 348 346 346 346 347 347 346 346 346 347 347
351 347 347 346 342 350 353 351 353 348 348 347 347 347 349 347 348 348 348 347 346 347 346 347 345 345 344 343 344 344 341 337 336 337 338 341 345 346 347 347 347 346 346 346 344 346 348 346 347
352 346 344 344 343 342 349 353 353 352 348 347 346 348 349 348 348 348 348 347 346 347 346 346 346 345 344 344 348 344 340 336 335 337 338 344 348 348 346 347 347 346 344 345 347 347 347 343 342
333 342 341 338 332 339 347 352 351 352 348 347 348 349 348 348 348 347 347 347 346 346 346 346 347 345 345 344 346 342 337 334 336 336 338 346 348 348 347 347 348 348 347 348 345 347 346 342 345
323 325 326 327 327 333 344 353 354 350 350 349 348 348 348 347 348 347 347 347 347 346 345 346 345 345 344 345 344 339 335 335 334 334 338 345 348 348 348 347 348 348 348 345 347 347 345 344 340
323 324 326 326 328 328 347 351 352 349 351 352 350 349 348 347 347 347 347 347 348 347 347 345 345 345 344 343 341 335 335 335 336 338 342 345 347 348 349 348 347 349 347 347 348 347 345 341 337
320 325 324 326 327 338 344 341 347 349 352 353 352 350 349 348 347 347 348 348 348 348 348 349 347 345 344 341 338 335 335 337 338 341 346 348 348 348 349 349 349 349 349 349 349 346 344 339 335
322 322 323 325 329 337 339 339 346 350 353 354 353 351 351 349 348 347 348 348 349 349 349 349 348 347 343 341 339 339 343 348 349 350 348 349 349 349 349 349 349 349 349 349 349 345 342 334 336
322 323 325 324 326 338 338 339 352 351 352 354 353 353 352 351 348 348 347 348 349 349 349 350 350 348 347 346 346 346 349 350 352 349 348 349 349 350 350 349 350 347 349 350 348 344 342 334 337
321 322 322 322 323 334 334 337 350 352 353 352 354 353 353 351 349 349 348 347 348 348 348 349 350 349 349 347 347 347 348 349 352 350 350 349 349 350 350 350 351 348 348 349 347 344 342 338 337
320 322 322 324 323 330 336 337 342 352 350 350 352 351 351 351 351 349 348 347 347 347 348 348 349 350 350 349 348 348 349 349 351 351 349 350 350 349 350 350 351 350 349 349 346 344 342 332 338
319 319 322 322 321 323 332 334 339 344 353 350 348 351 352 351 350 349 348 348 347 347 347 348 348 349 349 349 349 349 350 350 350 350 349 348 350 350 350 352 351 351 350 349 348 347 341 333 337
324 320 320 320 320 321 325 331 333 338 354 353 350 348 347 347 348 349 345 346 348 347 347 347 348 349 349 349 349 349 349 350 349 350 349 347 348 350 351 350 350 351 351 348 348 347 342 334 337
321 321 317 317 317 322 321 327 323 343 344 351 351 350 349 347 346 345 344 343 345 347 346 347 348 348 348 349 349 349 349 349 350 349 348 349 352 351 351 351 352 352 350 346 347 347 342 336 336
320 318 321 321 321 324 319 323 326 329 340 344 347 347 347 347 346 345 344 342 345 346 346 346 348 348 348 349 349 349 349 349 349 348 347 347 350 352 351 352 352 352 349 347 348 347 344 337 336
318 317 319 322 321 323 318 323 323 323 333 338 340 342 341 344 345 345 345 344 343 346 346 347 348 349 349 349 349 349 350 349 350 349 348 348 347 348 349 351 353 353 350 348 347 346 342 337 335
317 320 316 316 316 316 318 319 322 324 325 334 337 337 338 337 342 343 344 344 343 344 346 348 349 349 349 349 349 349 350 350 350 350 350 349 349 349 347 349 352 352 351 349 347 344 340 338 337
317 315 320 311 321 320 318 318 324 326 327 327 334 336 337 337 337 341 342 342 343 343 345 347 349 349 349 350 350 350 350 350 350 350 351 351 350 351 347 351 351 352 352 350 348 344 342 339 338
318 317 314 316 314 319 318 320 316 322 325 326 328 335 336 335 336 337 340 341 342 342 343 346 348 349 349 351 351 351 351 351 351 351 351 351 351 351 347 350 351 351 352 351 349 346 343 340 338
322 321 314 318 317 312 315 320 318 318 323 325 326 328 334 335 336 336 338 339 341 341 342 344 347 348 349 351 352 352 351 351 351 351 351 351 351 351 348 348 351 351 352 350 350 348 344 341 338
Wind_Speed
16 18 15 3 2 1 3 2 3 2 3 2 4 3 6 5 2 2 15 22 33 31 25 21 22 22 23 23 24 23 23 21 20 19 18 17 14 13 12 11 10 9 9 8 9 9 9 8 7
18 15 3 1 2 1 4 2 3 2 6 12 9 8 5 4 3 10 11 26 31 26 24 23 23 23 23 23 22 21 20 19 18 17 16 15 13 11 10 9 9 8 8 8 8 8 8 7 6
19 5 1 2 2 2 2 3 4 11 10 6 5 6 3 3 10 15 23 27 26 24 24 23 24 23 22 21 20 19 18 17 17 15 14 13 12 10 9 9 8 8 8 8 8 8 7 6 6
9 1 1 1 3 4 2 5 7 6 5 7 13 8 5 12 11 11 32 28 26 24 24 24 23 22 21 20 19 18 17 17 15 14 13 12 10 9 8 7 7 8 8 7 8 8 6 6 6
1 2 2 2 4 3 1 10 5 3 3 7 3 4 6 2 11 30 28 29 27 25 23 23 23 22 20 19 18 17 16 15 14 13 11 11 9 8 7 6 6 7 7 8 9 8 7 7 5
2 2 2 2 3 2 3 8 4 5 6 9 9 8 4 18 27 24 27 30 27 27 24 23 21 21 19 17 16 16 15 14 12 11 10 9 8 7 6 5 6 6 6 8 9 8 8 7 7
4 1 2 4 3 0 3 6 5 5 6 5 8 6 5 14 23 24 27 29 27 25 23 22 22 20 18 17 16 15 13 13 12 11 9 8 7 6 5 5 4 5 7 8 9 8 7 6 6
3 3 3 3 1 3 5 3 8 6 3 7 9 7 9 16 25 26 27 28 26 25 24 23 23 22 21 18 16 15 13 12 11 9 8 6 6 4 3 3 3 4 6 8 7 6 6 6 6
2 3 3 4 2 3 8 5 5 6 10 3 4 6 13 30 27 25 24 24 25 24 25 24 24 23 22 20 17 15 13 11 10 9 7 6 4 2 1 3 4 3 5 6 6 5 5 5 5
3 3 6 5 4 6 8 9 9 5 9 1 4 13 28 29 27 24 24 22 24 25 27 26 25 25 23 21 19 17 15 12 12 10 8 5 3 3 1 2 2 1 2 3 3 2 3 2 5
5 6 5 4 3 7 7 4 5 8 8 7 15 21 23 26 23 23 23 24 28 28 27 28 28 26 24 23 21 19 17 14 13 11 9 6 5 3 4 4 3 3 3 2 3 1 1 2 2
4 11 7 6 3 5 9 9 4 12 4 9 16 28 22 21 19 23 24 24 26 28 31 30 29 28 27 24 23 20 19 16 15 13 11 9 7 4 5 5 4 4 4 2 1 2 3 3 3
6 6 7 11 4 6 7 13 9 13 2 13 19 22 23 19 22 24 25 24 27 28 32 33 32 31 29 27 24 22 21 19 17 15 12 11 8 6 6 6 5 5 2 3 4 3 2 3 6
6 9 14 10 10 6 11 14 9 10 9 15 20 20 20 19 25 23 23 24 27 30 33 34 34 32 30 29 26 24 22 20 18 16 15 13 11 7 8 8 7 8 6 4 1 2 2 1 2
7 9 7 8 6 8 8 5 21 6 17 17 18 17 17 17 24 24 28 26 29 30 34 35 34 33 32 30 28 26 23 21 19 18 16 15 14 11 9 10 8 7 6 4 4 1 2 3 1
4 2 2 4 5 6 14 21 21 14 19 18 18 17 17 17 22 25 27 29 30 29 32 34 34 34 33 32 29 27 24 22 20 20 20 18 15 13 13 12 9 7 5 5 5 3 4 2 3
3 4 5 6 7 2 12 7 15 17 18 18 18 18 17 15 18 25 26 29 30 34 34 33 33 35 35 33 31 28 25 23 22 22 20 18 18 13 15 14 10 8 6 5 4 3 2 2 4
6 4 3 5 1 5 7 6 8 17 19 20 19 17 17 17 21 28 29 27 31 33 35 34 34 35 34 33 32 28 25 22 21 22 22 17 18 19 17 14 11 10 8 7 5 3 3 1 3
5 5 4 3 3 6 10 3 6 16 15 17 18 17 18 20 21 25 27 26 28 30 33 36 35 36 33 33 32 31 29 25 20 17 17 17 17 20 20 17 13 11 10 8 6 5 4 2 1
6 5 7 4 7 2 3 9 9 15 22 22 20 18 20 18 16 22 27 28 29 34 38 40 42 40 39 37 36 30 32 30 24 21 20 19 18 21 22 21 16 13 11 11 9 7 5 5 3
6 12 6 4 3 1 4 6 5 12 4 13 16 18 17 18 19 18 23 32 33 33 37 41 45 44 43 41 35 30 26 30 29 27 24 21 19 18 23 23 20 15 13 13 11 10 8 7 5
9 8 5 7 4 4 4 5 5 8 20 16 15 18 18 19 15 15 20 25 33 38 40 41 40 40 43 42 36 34 29 26 31 34 29 26 22 21 22 23 21 18 16 15 14 13 10 9 8
8 9 9 6 5 3 4 1 6 7 11 17 18 19 20 21 19 20 19 34 38 35 38 41 44 45 44 45 43 40 32 32 32 33 31 26 25 23 21 24 23 21 18 17 17 17 14 12 10
7 4 5 5 4 6 9 8 5 7 14 17 18 18 20 20 21 19 29 27 30 32 33 35 37 43 43 44 46 41 36 32 32 29 29 27 24 23 22 19 22 22 19 18 19 19 15 13 13
6 8 2 2 4 9 8 7 14 9 14 20 24 22 22 22 21 21 19 19 29 33 36 36 38 39 42 46 45 44 43 40 39 37 31 30 28 26 23 20 22 23 22 20 19 20 18 15 15
8 10 6 8 5 5 7 9 6 13 11 17 19 25 23 21 22 23 24 26 31 37 37 37 38 39 40 44 45 47 46 40 42 39 37 33 33 31 29 26 26 27 24 21 20 21 19 17 15
6 10 9 4 1 2 5 7 6 6 9 12 18 17 16 20 22 24 24 30 34 34 38 40 39 40 40 42 44 42 44 40 37 39 41 38 34 30 28 28 28 30 28 25 23 23 22 19 17
11 9 4 1 6 6 5 4 6 8 14 14 10 15 18 18 20 22 21 27 35 38 41 41 42 43 43 46 44 44 45 46 43 41 42 40 37 33 30 28 27 31 31 28 26 26 24 22 20
4 6 3 6 6 6 0 7 8 10 13 15 17 17 18 16 19 20 21 30 37 36 34 40 40 39 40 39 40 40 39 41 41 42 44 41 38 36 32 32 28 30 33 31 29 29 26 25 22
22 12 8 6 10 5 4 9 4 10 9 12 12 11 11 14 17 19 21 22 27 33 33 37 39 39 43 42 41 41 42 42 41 44 45 42 39 37 33 34 33 31 34 34 33 33 30 28 26
Wind_Direction
157 155 161 154 160 157 265 271 135 98 62 38 75 125 124 40 83 159 133 132 137 143 149 142 133 129 128 133 135 133 133 130 129 123 120 119 118 113 105 97 93 89 91 86 84 87 86 102 111
154 152 183 188 110 73 268 232 132 160 117 103 80 103 50 76 92 121 119 142 142 143 148 145 136 132 131 137 135 134 128 127 125 123 121 119 115 112 109 100 92 90 81 76 76 76 80 92 118
154 175 186 155 149 222 274 57 129 138 155 113 108 68 79 92 119 136 149 150 149 146 148 144 139 135 135 138 136 133 130 129 128 125 123 120 118 118 112 97 90 79 71 73 73 75 76 83 107
153 213 233 360 306 271 229 110 139 141 95 66 111 79 77 115 133 154 151 152 149 146 147 144 143 141 140 140 141 138 134 132 130 130 127 120 117 119 110 99 91 78 71 72 76 78 82 86 100
194 218 1 16 285 274 141 130 158 93 72 110 96 100 101 113 151 141 152 155 150 147 147 149 150 149 147 149 146 141 136 134 134 136 131 120 120 115 108 98 83 74 66 70 77 82 80 79 86
17 317 53 297 256 4 81 145 128 83 94 117 102 98 103 138 134 144 152 156 153 150 152 155 158 157 156 155 151 148 143 140 140 142 136 126 118 108 99 86 73 66 62 72 80 81 80 67 60
109 62 251 255 263 306 137 126 103 114 135 116 133 98 105 146 144 151 157 159 157 156 157 159 163 164 165 164 162 160 154 151 153 153 144 136 124 108 89 74 70 67 76 80 79 78 71 58 49
110 112 285 263 293 302 134 108 125 118 82 111 149 156 159 169 153 154 162 164 165 166 166 167 171 173 177 175 175 172 167 165 163 159 150 138 119 108 80 38 43 79 92 95 93 80 71 43 30
75 52 291 259 177 270 142 121 146 102 140 192 150 141 145 154 150 148 154 166 174 177 176 176 178 181 186 184 183 184 182 178 175 173 164 155 144 129 104 71 64 74 109 107 100 88 73 33 17
155 152 233 209 194 200 183 138 156 125 156 202 90 108 139 151 154 156 165 172 177 182 184 185 185 188 190 191 191 197 194 193 190 189 187 192 190 194 171 145 124 138 126 110 95 94 68 83 51
180 212 220 260 107 150 136 140 163 143 198 198 165 147 153 160 161 164 174 179 182 185 186 191 192 194 195 197 198 203 203 202 202 202 201 199 199 203 203 172 180 180 210 182 160 130 40 128 46
219 226 247 248 111 119 161 149 212 183 225 180 165 155 159 167 170 174 178 183 183 187 191 194 197 199 200 202 204 207 208 207 208 207 208 215 221 211 204 191 188 202 230 276 301 270 41 46 68
245 265 241 254 215 209 166 185 186 211 275 132 149 160 165 170 175 182 184 185 187 191 195 198 200 203 204 206 208 210 211 211 210 213 212 217 222 224 219 213 219 211 233 285 327 318 2 61 106
207 240 260 266 254 224 179 201 172 210 136 146 159 170 173 176 178 179 184 188 192 196 197 200 203 205 207 208 210 212 213 213 215 218 217 222 227 230 234 235 245 256 264 257 262 325 326 156 280
249 282 291 240 198 229 170 199 214 158 147 161 172 176 179 188 183 183 188 191 194 200 201 204 206 207 210 213 214 215 216 216 219 221 223 228 230 235 244 246 254 248 243 227 241 310 318 288 304
334 146 246 280 139 231 154 227 218 162 156 172 177 179 188 195 193 191 191 194 197 199 203 208 209 211 212 215 217 217 218 221 224 226 226 227 236 238 241 239 250 242 242 224 222 265 278 253 207
333 239 223 315 205 142 179 250 196 166 167 175 183 188 188 194 200 197 196 196 197 204 206 209 209 211 213 215 219 220 224 227 231 238 239 235 236 235 234 236 244 236 222 210 224 285 229 290 7
207 212 236 252 249 163 199 263 184 171 174 179 185 192 191 196 207 199 198 196 199 203 209 211 209 212 213 216 220 223 225 229 240 246 236 237 231 226 230 232 236 238 231 228 238 231 205 313 6
195 211 196 270 283 142 220 255 201 174 186 183 190 194 197 204 204 200 200 198 196 200 203 209 208 211 211 213 217 221 224 226 232 220 218 222 226 226 225 231 236 235 241 233 246 210 204 279 322
207 245 252 289 273 120 216 242 195 185 199 190 185 197 204 207 199 195 197 199 197 198 204 206 212 212 213 214 216 216 220 222 223 219 220 223 229 228 226 229 233 236 235 228 231 212 226 257 228
209 217 197 208 336 299 91 307 179 209 201 206 203 201 205 209 200 198 195 198 199 201 201 205 210 211 214 216 215 217 222 223 224 225 223 223 223 227 228 230 231 232 230 232 227 222 237 208 206
214 187 153 167 124 216 147 269 258 201 208 204 200 200 205 213 211 202 203 206 206 205 205 208 209 208 215 216 212 211 212 211 224 228 227 226 225 227 235 231 233 233 236 234 234 227 228 215 208
220 154 182 168 190 173 219 276 254 155 208 216 214 207 205 208 208 207 200 208 210 207 204 204 207 209 211 212 213 214 212 221 225 230 231 228 224 229 240 237 234 233 235 237 230 222 220 224 222
160 98 61 52 111 242 212 177 238 186 209 216 227 218 211 211 214 211 210 207 211 210 207 204 202 206 208 210 211 213 212 216 222 226 221 218 219 224 233 234 229 228 235 235 232 222 220 229 222
141 103 289 298 197 239 174 195 230 209 203 204 214 219 215 212 211 213 209 197 202 200 202 200 201 206 206 209 211 212 217 218 223 224 219 217 220 225 231 231 221 225 234 232 224 219 221 223 223
184 160 162 203 219 228 118 235 241 202 208 220 222 218 212 213 212 212 210 204 201 201 200 199 200 205 204 207 210 213 217 217 223 225 226 222 224 229 234 233 231 228 231 228 224 221 223 222 219
193 194 176 80 271 25 219 309 307 188 212 212 225 226 218 213 214 215 212 208 208 202 201 199 200 204 203 206 209 210 214 215 219 224 228 228 228 231 231 234 230 226 226 226 224 222 222 219 221
162 160 141 33 196 244 275 248 223 202 202 201 216 218 225 217 214 216 212 212 210 207 203 202 203 202 203 205 206 208 212 217 219 224 228 228 230 231 229 228 229 229 226 225 224 223 225 223 223
154 179 111 148 167 203 24 252 210 210 219 214 210 209 218 214 217 215 211 210 208 208 201 201 202 202 202 204 205 206 209 213 214 220 228 231 230 230 229 227 229 231 228 227 226 227 227 225 226
214 199 156 162 222 248 181 245 210 231 203 199 218 217 218 216 214 210 209 205 201 203 201 198 200 202 204 202 203 205 208 209 211 218 226 230 229 229 228 226 230 234 230 227 227 228 229 226 225